Weather History for Lander, WY

Change the Weather History Date:

Monday, November 29, 2010

  Actual Average Record
Temperature  
Mean Temperature 16 °F 24 °F  
Max Temperature 26 °F 35 °F 58 °F (1901)
Min Temperature 5 °F 13 °F -27 °F (1896)
Degree Days  
Heating Degree Days 49 41  
Month to date heating degree days 908 972  
Since 1 July heating degree days 1461 1833  
Cooling Degree Days 0 0  
Month to date cooling degree days 0 0  
Year to date cooling degree days 452 472  
Moisture  
Dew Point 16 °F    
Average Humidity 81    
Maximum Humidity 96    
Minimum Humidity 66    
Precipitation  
Precipitation 0.12 in 0.03 in 0.60 in (1996)
Month to date precipitation 0.75 0.84  
Year to date precipitation 13.72 12.06  
Snow  
Snow 1.90 in 0.40 in - ()
Month to date snowfall 7.6 12.7  
Since 1 July snowfall 7.6 25.2  
Since 1 September snowfall 7.6 25.2  
Snow Depth 5.00 in    
Sea Level Pressure  
Sea Level Pressure 30.06 in    
Wind  
Wind Speed 2 mph (NW)    
Max Wind Speed 10 mph    
Max Gust Speed 13 mph    
Visibility 5 miles    
Events Fog , Snow    
T = Trace of Precipitation, MM = Missing Value Source: NWS Daily Summary

Daily Weather History Graph

Daily Weather History Graph

Search for Another Location

Airport:

Trip Planner

Search our weather history database for the weather conditions in past years. The results will help you decide how hot, cold, wet, or windy it might be!

Date:

Astronomy

Nov. 29, 2010 Rise Set
Actual Time 7:23 AM MST 4:42 PM MST
Civil Twilight 6:52 AM MST 5:14 PM MST
Nautical Twilight 6:17 AM MST 5:49 PM MST
Astronomical Twilight 5:43 AM MST 6:23 PM MST
Moon 12:24 AM MST (11/29) 12:53 PM MST (11/29)
Length of Visible Light 10h 21m
Length of Day
9h 18m
Last Quarter, 39% of the Moon is Illuminated
Nov 29
Last Quarter
Dec 5
New
Dec 13
First Quarter
Dec 21
Full
Dec 27
Last Quarter

Hourly Weather History & Observations

Time (MST) Temp. Windchill Dew Point Humidity Pressure Visibility Wind Dir Wind Speed Gust Speed Precip Events Conditions
12:23 AM 23.0 °F 18.4 °F 21.2 °F 93% 29.76 in 0.5 mi East 3.5 mph - 0.02 in Fog , Snow Snow
12:53 AM 21.9 °F 14.5 °F 19.9 °F 92% 29.87 in 0.8 mi NNE 5.8 mph - 0.05 in Snow Light Snow
1:02 AM 21.2 °F 14.9 °F 19.4 °F 93% 29.77 in 0.8 mi NNE 4.6 mph - 0.00 in Snow Light Snow
1:17 AM 21.2 °F 14.9 °F 19.4 °F 93% 29.78 in 1.0 mi NNE 4.6 mph - 0.01 in Snow Light Snow
1:43 AM 21.2 °F - 19.4 °F 93% 29.79 in 0.8 mi Calm Calm - 0.02 in Snow Light Snow
1:53 AM 21.9 °F - 19.9 °F 92% 29.90 in 0.8 mi Calm Calm - 0.02 in Snow Light Snow
2:07 AM 21.2 °F - 19.4 °F 93% 29.81 in 1.0 mi Calm Calm - 0.01 in Snow Light Snow
2:24 AM 21.2 °F - 19.4 °F 93% 29.81 in 1.5 mi Calm Calm - 0.02 in Snow Light Snow
2:34 AM 21.2 °F - 19.4 °F 93% 29.82 in 1.5 mi Calm Calm - 0.02 in Snow Light Snow
2:53 AM 21.0 °F - 19.9 °F 96% 29.94 in 1.2 mi Calm Calm - 0.02 in Snow Light Snow
3:19 AM 21.2 °F - 19.4 °F 93% 29.85 in 2.5 mi Calm Calm - 0.01 in Snow Light Snow
3:26 AM 21.2 °F - 19.4 °F 93% 29.86 in 4.0 mi Calm Calm - 0.01 in Snow Light Snow
3:36 AM 21.2 °F - 19.4 °F 93% 29.86 in 6.0 mi Calm Calm - 0.01 in Snow Light Snow
3:44 AM 21.2 °F - 19.4 °F 93% 29.86 in 5.0 mi Calm Calm - 0.01 in Snow Light Snow
3:53 AM 21.0 °F - 19.0 °F 92% 29.98 in 8.0 mi Calm Calm - 0.01 in   Overcast
4:22 AM 21.2 °F 16.4 °F 17.6 °F 86% 29.88 in 2.5 mi NW 3.5 mph - 0.00 in Snow Light Snow
4:31 AM 21.2 °F 13.6 °F 17.6 °F 86% 29.89 in 1.5 mi NW 5.8 mph - 0.00 in Snow Light Snow
4:43 AM 21.2 °F 11.7 °F 17.6 °F 86% 29.90 in 1.2 mi WNW 8.1 mph - 0.00 in Snow Light Snow
4:53 AM 21.0 °F 12.4 °F 18.0 °F 88% 30.01 in 1.2 mi WNW 6.9 mph - 0.00 in Snow Light Snow
5:53 AM 21.0 °F 16.2 °F 18.0 °F 88% 30.06 in 1.5 mi NNW 3.5 mph - 0.01 in Snow Light Snow
6:01 AM 21.2 °F - 17.6 °F 86% 29.95 in 2.0 mi Calm Calm - 0.01 in Snow Light Snow
6:15 AM 21.2 °F - 17.6 °F 86% 29.95 in 2.0 mi Calm Calm - 0.01 in Snow Light Snow
6:38 AM 19.4 °F - 17.6 °F 93% 29.97 in 3.0 mi Calm Calm - 0.01 in Snow Light Snow
6:53 AM 21.0 °F 12.4 °F 16.0 °F 81% 30.10 in 2.5 mi NW 6.9 mph - 0.01 in Snow Light Snow
7:00 AM 19.4 °F 11.5 °F 15.8 °F 86% 29.98 in 3.0 mi NW 5.8 mph - 0.00 in Snow Light Snow
7:53 AM 18.0 °F - 15.1 °F 88% 30.14 in 10.0 mi Calm Calm - 0.00 in   Overcast
8:53 AM 19.0 °F - - N/A% 30.17 in 7.0 mi Calm Calm - N/A   Overcast
9:53 AM 19.9 °F - 17.1 °F 89% 30.21 in 5.0 mi Calm Calm - 0.00 in   Overcast
10:53 AM 21.0 °F - 18.0 °F 88% 30.23 in 4.0 mi Calm Calm - 0.00 in Snow Light Snow
11:53 AM 24.1 °F 19.7 °F 16.0 °F 71% 30.22 in 10.0 mi West 3.5 mph - 0.00 in   Partly Cloudy
12:53 PM 23.0 °F 18.4 °F 17.1 °F 78% 30.23 in 10.0 mi ESE 3.5 mph - N/A   Partly Cloudy
1:53 PM 24.1 °F - 16.0 °F 71% 30.24 in 10.0 mi Calm Calm - N/A   Overcast
2:53 PM 24.1 °F - 17.1 °F 75% 30.26 in 10.0 mi Calm Calm - N/A   Overcast
3:53 PM 19.9 °F 11.1 °F 16.0 °F 85% 30.31 in 10.0 mi SSE 6.9 mph - N/A   Overcast
4:53 PM 17.1 °F 11.7 °F 12.9 °F 84% 30.34 in 10.0 mi SSE 3.5 mph - N/A   Clear
5:53 PM 15.1 °F 9.4 °F 10.0 °F 80% 30.36 in 10.0 mi South 3.5 mph - N/A   Clear
6:53 PM 12.9 °F 5.2 °F 9.0 °F 84% 30.38 in 10.0 mi SSW 4.6 mph - N/A   Clear
7:53 PM 10.9 °F - 7.0 °F 84% 30.41 in 10.0 mi Calm Calm - N/A   Clear
8:53 PM 12.0 °F - 5.0 °F 73% 30.40 in 10.0 mi Calm Calm - N/A   Clear
9:53 PM 10.9 °F 4.7 °F 1.9 °F 67% 30.39 in 10.0 mi WSW 3.5 mph - N/A   Clear
10:53 PM 9.0 °F - 5.0 °F 84% 30.41 in 10.0 mi Calm Calm - N/A   Clear
11:53 PM 7.0 °F - 3.9 °F 87% 30.38 in 10.0 mi Calm Calm - N/A   Clear